owner,sensor,date,latitude,longitude,vertical_datum,wind_speed,wind_to_direction,wind_speed_of_gust,qcFlag 
WAVCIS,ioos:station:WAVCIS:CSI15:1,2008-04-04T15:00:00Z,28.8332,-90.8320,10.0,7.58,159.0,,'11111222,11111222,99999999' 
WAVCIS,ioos:station:WAVCIS:CSI15:1,2008-04-04T16:00:00Z,28.8332,-90.8320,10.0,7.77,151.0,,'11111222,11111222,99999999' 
WAVCIS,ioos:station:WAVCIS:CSI15:1,2008-04-04T17:00:00Z,28.8332,-90.8320,10.0,9.21,147.0,,'11111222,11111222,99999999' 
WAVCIS,ioos:station:WAVCIS:CSI15:1,2008-04-04T18:00:00Z,28.8332,-90.8320,10.0,8.84,153.0,,'11111222,11111222,99999999' 
WAVCIS,ioos:station:WAVCIS:CSI15:1,2008-04-04T19:00:00Z,28.8332,-90.8320,10.0,8.19,150.0,,'11111222,11111222,99999999' 
WAVCIS,ioos:station:WAVCIS:CSI15:1,2008-04-04T20:00:00Z,28.8332,-90.8320,10.0,6.939,155.0,,'11111222,11111222,99999999' 
WAVCIS,ioos:station:WAVCIS:CSI15:1,2008-04-04T21:00:00Z,28.8332,-90.8320,10.0,8.34,155.0,,'11111222,11111222,99999999' 
WAVCIS,ioos:station:WAVCIS:CSI15:1,2008-04-04T22:00:00Z,28.8332,-90.8320,10.0,8.07,165.0,,'11111222,11111222,99999999' 
WAVCIS,ioos:station:WAVCIS:CSI15:1,2008-04-04T23:00:00Z,28.8332,-90.8320,10.0,6.848,164.0,,'11111222,11111222,99999999' 
WAVCIS,ioos:station:WAVCIS:CSI15:1,2008-04-05T00:00:00Z,28.8332,-90.8320,10.0,8.48,166.0,,'11111222,11111222,99999999' 
WAVCIS,ioos:station:WAVCIS:CSI15:1,2008-04-05T01:00:00Z,28.8332,-90.8320,10.0,8.93,157.0,,'11111222,11111222,99999999' 
WAVCIS,ioos:station:WAVCIS:CSI15:1,2008-04-05T02:00:00Z,28.8332,-90.8320,10.0,11.15,158.0,,'11111222,11111222,99999999' 
WAVCIS,ioos:station:WAVCIS:CSI15:1,2008-04-05T03:00:00Z,28.8332,-90.8320,10.0,8.8,163.0,,'11111222,11111222,99999999' 
WAVCIS,ioos:station:WAVCIS:CSI15:1,2008-04-05T04:00:00Z,28.8332,-90.8320,10.0,9.01,169.0,,'11111222,11111222,99999999' 
WAVCIS,ioos:station:WAVCIS:CSI15:1,2008-04-05T05:00:00Z,28.8332,-90.8320,10.0,10.09,172.0,,'11111222,11111222,99999999' 
WAVCIS,ioos:station:WAVCIS:CSI15:1,2008-04-05T06:00:00Z,28.8332,-90.8320,10.0,11.55,168.0,,'11111222,11111222,99999999' 
WAVCIS,ioos:station:WAVCIS:CSI15:1,2008-04-05T07:00:00Z,28.8332,-90.8320,10.0,10.32,173.0,,'11111222,11111222,99999999' 
WAVCIS,ioos:station:WAVCIS:CSI15:1,2008-04-05T08:00:00Z,28.8332,-90.8320,10.0,9.12,192.0,,'11111222,11111222,99999999' 
WAVCIS,ioos:station:WAVCIS:CSI15:1,2008-04-05T09:00:00Z,28.8332,-90.8320,10.0,9.74,192.0,,'11111222,11111222,99999999' 
WAVCIS,ioos:station:WAVCIS:CSI15:1,2008-04-05T10:00:00Z,28.8332,-90.8320,10.0,11.01,196.0,,'11111222,11111222,99999999' 
WAVCIS,ioos:station:WAVCIS:CSI15:1,2008-04-05T11:00:00Z,28.8332,-90.8320,10.0,9.87,206.0,,'11111222,11111222,99999999' 
WAVCIS,ioos:station:WAVCIS:CSI15:1,2008-04-05T12:00:00Z,28.8332,-90.8320,10.0,7.69,229.0,,'11111222,11111222,99999999' 
WAVCIS,ioos:station:WAVCIS:CSI15:1,2008-04-05T13:00:00Z,28.8332,-90.8320,10.0,10.9,284.0,,'11111222,11111222,99999999' 
WAVCIS,ioos:station:WAVCIS:CSI15:1,2008-04-05T14:00:00Z,28.8332,-90.8320,10.0,9.85,304.0,,'11111222,11111222,99999999' 
WAVCIS,ioos:station:WAVCIS:CSI15:1,2008-04-05T15:00:00Z,28.8332,-90.8320,10.0,9.04,310.0,,'11111222,11111222,99999999' 
WAVCIS,ioos:station:WAVCIS:CSI15:1,2008-04-05T16:00:00Z,28.8332,-90.8320,10.0,6.326,334.0,,'11111222,11111222,99999999' 
WAVCIS,ioos:station:WAVCIS:CSI15:1,2008-04-05T17:00:00Z,28.8332,-90.8320,10.0,5.069,347.0,,'11111222,11111222,99999999' 
WAVCIS,ioos:station:WAVCIS:CSI15:1,2008-04-05T18:00:00Z,28.8332,-90.8320,10.0,5.16,317.0,,'11111222,11111222,99999999' 
WAVCIS,ioos:station:WAVCIS:CSI15:1,2008-04-05T19:00:00Z,28.8332,-90.8320,10.0,4.846,323.0,,'11111222,11111222,99999999' 
WAVCIS,ioos:station:WAVCIS:CSI15:1,2008-04-05T20:00:00Z,28.8332,-90.8320,10.0,4.767,319.0,,'11111222,11111222,99999999' 
WAVCIS,ioos:station:WAVCIS:CSI15:1,2008-04-05T21:00:00Z,28.8332,-90.8320,10.0,4.333,328.0,,'11111222,11111222,99999999' 
WAVCIS,ioos:station:WAVCIS:CSI15:1,2008-04-05T22:00:00Z,28.8332,-90.8320,10.0,4.791,326.0,,'11111222,11111222,99999999' 
WAVCIS,ioos:station:WAVCIS:CSI15:1,2008-04-05T23:00:00Z,28.8332,-90.8320,10.0,2.67,10.0,,'11111222,11111222,99999999' 
WAVCIS,ioos:station:WAVCIS:CSI15:1,2008-04-06T00:00:00Z,28.8332,-90.8320,10.0,3.413,58.0,,'11111222,11111222,99999999' 
WAVCIS,ioos:station:WAVCIS:CSI15:1,2008-04-06T01:00:00Z,28.8332,-90.8320,10.0,3.462,22.0,,'11111222,11111222,99999999' 
WAVCIS,ioos:station:WAVCIS:CSI15:1,2008-04-06T02:00:00Z,28.8332,-90.8320,10.0,4.353,12.0,,'11111222,11111222,99999999' 
WAVCIS,ioos:station:WAVCIS:CSI15:1,2008-04-06T03:00:00Z,28.8332,-90.8320,10.0,6.082,22.0,,'11111222,11111222,99999999' 
WAVCIS,ioos:station:WAVCIS:CSI15:1,2008-04-06T04:00:00Z,28.8332,-90.8320,10.0,5.097,32.0,,'11111222,11111222,99999999' 
WAVCIS,ioos:station:WAVCIS:CSI15:1,2008-04-06T05:00:00Z,28.8332,-90.8320,10.0,5.045,55.0,,'11111222,11111222,99999999' 
WAVCIS,ioos:station:WAVCIS:CSI15:1,2008-04-06T06:00:00Z,28.8332,-90.8320,10.0,5.614,64.0,,'11111222,11111222,99999999' 
WAVCIS,ioos:station:WAVCIS:CSI15:1,2008-04-06T07:00:00Z,28.8332,-90.8320,10.0,5.832,67.0,,'11111222,11111222,99999999' 
WAVCIS,ioos:station:WAVCIS:CSI15:1,2008-04-06T08:00:00Z,28.8332,-90.8320,10.0,4.734,59.0,,'11111222,11111222,99999999' 
WAVCIS,ioos:station:WAVCIS:CSI15:1,2008-04-06T09:00:00Z,28.8332,-90.8320,10.0,5.316,50.0,,'11111222,11111222,99999999' 
WAVCIS,ioos:station:WAVCIS:CSI15:1,2008-04-06T10:00:00Z,28.8332,-90.8320,10.0,4.572,48.0,,'11111222,11111222,99999999' 
WAVCIS,ioos:station:WAVCIS:CSI15:1,2008-04-06T11:00:00Z,28.8332,-90.8320,10.0,4.984,37.0,,'11111222,11111222,99999999' 
WAVCIS,ioos:station:WAVCIS:CSI15:1,2008-04-06T12:00:00Z,28.8332,-90.8320,10.0,5.234,35.0,,'11111222,11111222,99999999' 
WAVCIS,ioos:station:WAVCIS:CSI15:1,2008-04-06T13:00:00Z,28.8332,-90.8320,10.0,5.417,21.0,,'11111222,11111222,99999999' 
WAVCIS,ioos:station:WAVCIS:CSI15:1,2008-04-06T14:00:00Z,28.8332,-90.8320,10.0,6.957,25.0,,'11111222,11111222,99999999' 
WAVCIS,ioos:station:WAVCIS:CSI15:1,2008-04-06T15:00:00Z,28.8332,-90.8320,10.0,7.41,29.0,,'11111222,11111222,99999999' 
WAVCIS,ioos:station:WAVCIS:CSI15:1,2008-04-06T16:00:00Z,28.8332,-90.8320,10.0,7.33,29.0,,'11111222,11111222,99999999' 
WAVCIS,ioos:station:WAVCIS:CSI15:1,2008-04-06T17:00:00Z,28.8332,-90.8320,10.0,7.06,45.0,,'11111222,11111222,99999999' 
WAVCIS,ioos:station:WAVCIS:CSI15:1,2008-04-06T18:00:00Z,28.8332,-90.8320,10.0,8.08,47.0,,'11111222,11111222,99999999' 
WAVCIS,ioos:station:WAVCIS:CSI15:1,2008-04-06T19:00:00Z,28.8332,-90.8320,10.0,7.77,48.0,,'11111222,11111222,99999999' 
WAVCIS,ioos:station:WAVCIS:CSI15:1,2008-04-06T20:00:00Z,28.8332,-90.8320,10.0,8.05,38.0,,'11111222,11111222,99999999' 
WAVCIS,ioos:station:WAVCIS:CSI15:1,2008-04-06T21:00:00Z,28.8332,-90.8320,10.0,7.56,48.0,,'11111222,11111222,99999999' 
WAVCIS,ioos:station:WAVCIS:CSI15:1,2008-04-06T22:00:00Z,28.8332,-90.8320,10.0,7.78,57.0,,'11111222,11111222,99999999' 
WAVCIS,ioos:station:WAVCIS:CSI15:1,2008-04-06T23:00:00Z,28.8332,-90.8320,10.0,7.81,77.0,,'11111222,11111222,99999999' 
WAVCIS,ioos:station:WAVCIS:CSI15:1,2008-04-07T00:00:00Z,28.8332,-90.8320,10.0,6.687,82.0,,'11111222,11111222,99999999' 
WAVCIS,ioos:station:WAVCIS:CSI15:1,2008-04-07T01:00:00Z,28.8332,-90.8320,10.0,5.076,88.0,,'11111222,11111222,99999999' 
WAVCIS,ioos:station:WAVCIS:CSI15:1,2008-04-07T02:00:00Z,28.8332,-90.8320,10.0,3.397,74.0,,'11111222,11111222,99999999' 
WAVCIS,ioos:station:WAVCIS:CSI15:1,2008-04-07T03:00:00Z,28.8332,-90.8320,10.0,3.123,64.0,,'11111222,11111222,99999999' 
WAVCIS,ioos:station:WAVCIS:CSI15:1,2008-04-07T04:00:00Z,28.8332,-90.8320,10.0,2.789,78.0,,'11111222,11111222,99999999' 
WAVCIS,ioos:station:WAVCIS:CSI15:1,2008-04-07T05:00:00Z,28.8332,-90.8320,10.0,2.954,63.0,,'11111222,11111222,99999999' 
WAVCIS,ioos:station:WAVCIS:CSI15:1,2008-04-07T06:00:00Z,28.8332,-90.8320,10.0,2.25,71.0,,'11111222,11111222,99999999' 
WAVCIS,ioos:station:WAVCIS:CSI15:1,2008-04-07T07:00:00Z,28.8332,-90.8320,10.0,2.827,57.0,,'11111222,11111222,99999999' 
WAVCIS,ioos:station:WAVCIS:CSI15:1,2008-04-07T08:00:00Z,28.8332,-90.8320,10.0,3.192,59.0,,'11111222,11111222,99999999' 
WAVCIS,ioos:station:WAVCIS:CSI15:1,2008-04-07T09:00:00Z,28.8332,-90.8320,10.0,3.894,34.0,,'11111222,11111222,99999999' 
WAVCIS,ioos:station:WAVCIS:CSI15:1,2008-04-07T10:00:00Z,28.8332,-90.8320,10.0,3.846,29.0,,'11111222,11111222,99999999' 
WAVCIS,ioos:station:WAVCIS:CSI15:1,2008-04-07T11:00:00Z,28.8332,-90.8320,10.0,5.114,60.0,,'11111222,11111222,99999999' 
WAVCIS,ioos:station:WAVCIS:CSI15:1,2008-04-07T12:00:00Z,28.8332,-90.8320,10.0,5.157,45.0,,'11111222,11111222,99999999' 
WAVCIS,ioos:station:WAVCIS:CSI15:1,2008-04-07T13:00:00Z,28.8332,-90.8320,10.0,7.81,77.0,,'11111222,11111222,99999999' 
WAVCIS,ioos:station:WAVCIS:CSI15:1,2008-04-07T14:00:00Z,28.8332,-90.8320,10.0,6.058,44.0,,'11111222,11111222,99999999' 
WAVCIS,ioos:station:WAVCIS:CSI15:1,2008-04-07T15:00:00Z,28.8332,-90.8320,10.0,8.12,53.0,,'11111222,11111222,99999999' 
WAVCIS,ioos:station:WAVCIS:CSI15:1,2008-04-07T16:00:00Z,28.8332,-90.8320,10.0,8.7,47.0,,'11111222,11111222,99999999' 
WAVCIS,ioos:station:WAVCIS:CSI15:1,2008-04-07T17:00:00Z,28.8332,-90.8320,10.0,8.25,43.0,,'11111222,11111222,99999999' 
WAVCIS,ioos:station:WAVCIS:CSI15:1,2008-04-07T18:00:00Z,28.8332,-90.8320,10.0,10.19,56.0,,'11111222,11111222,99999999' 
WAVCIS,ioos:station:WAVCIS:CSI15:1,2008-04-07T19:00:00Z,28.8332,-90.8320,10.0,9.36,60.0,,'11111222,11111222,99999999' 
WAVCIS,ioos:station:WAVCIS:CSI15:1,2008-04-07T20:00:00Z,28.8332,-90.8320,10.0,8.46,67.0,,'11111222,11111222,99999999' 
WAVCIS,ioos:station:WAVCIS:CSI15:1,2008-04-07T21:00:00Z,28.8332,-90.8320,10.0,7.94,67.0,,'11111222,11111222,99999999' 
WAVCIS,ioos:station:WAVCIS:CSI15:1,2008-04-07T22:00:00Z,28.8332,-90.8320,10.0,8.06,72.0,,'11111222,11111222,99999999' 
WAVCIS,ioos:station:WAVCIS:CSI15:1,2008-04-07T23:00:00Z,28.8332,-90.8320,10.0,7.56,73.0,,'11111222,11111222,99999999' 
WAVCIS,ioos:station:WAVCIS:CSI15:1,2008-04-08T00:00:00Z,28.8332,-90.8320,10.0,7.96,80.0,,'11111222,11111222,99999999' 
WAVCIS,ioos:station:WAVCIS:CSI15:1,2008-04-08T01:00:00Z,28.8332,-90.8320,10.0,7.7,82.0,,'11111222,11111222,99999999' 
WAVCIS,ioos:station:WAVCIS:CSI15:1,2008-04-08T02:00:00Z,28.8332,-90.8320,10.0,7.76,72.0,,'11111222,11111222,99999999' 
WAVCIS,ioos:station:WAVCIS:CSI15:1,2008-04-08T03:00:00Z,28.8332,-90.8320,10.0,8.02,69.0,,'11111222,11111222,99999999' 
WAVCIS,ioos:station:WAVCIS:CSI15:1,2008-04-08T04:00:00Z,28.8332,-90.8320,10.0,7.54,69.0,,'11111222,11111222,99999999' 
WAVCIS,ioos:station:WAVCIS:CSI15:1,2008-04-08T05:00:00Z,28.8332,-90.8320,10.0,6.98,85.0,,'11111222,11111222,99999999' 
WAVCIS,ioos:station:WAVCIS:CSI15:1,2008-04-08T06:00:00Z,28.8332,-90.8320,10.0,7.57,92.0,,'11111222,11111222,99999999' 
WAVCIS,ioos:station:WAVCIS:CSI15:1,2008-04-08T07:00:00Z,28.8332,-90.8320,10.0,7.24,93.0,,'11111222,11111222,99999999' 
WAVCIS,ioos:station:WAVCIS:CSI15:1,2008-04-08T08:00:00Z,28.8332,-90.8320,10.0,6.827,90.0,,'11111222,11111222,99999999' 
WAVCIS,ioos:station:WAVCIS:CSI15:1,2008-04-08T09:00:00Z,28.8332,-90.8320,10.0,6.687,87.0,,'11111222,11111222,99999999' 
WAVCIS,ioos:station:WAVCIS:CSI15:1,2008-04-08T10:00:00Z,28.8332,-90.8320,10.0,6.833,81.0,,'11111222,11111222,99999999' 
WAVCIS,ioos:station:WAVCIS:CSI15:1,2008-04-08T11:00:00Z,28.8332,-90.8320,10.0,7.39,78.0,,'11111222,11111222,99999999' 
WAVCIS,ioos:station:WAVCIS:CSI15:1,2008-04-08T12:00:00Z,28.8332,-90.8320,10.0,9.27,80.0,,'11111222,11111222,99999999' 
WAVCIS,ioos:station:WAVCIS:CSI15:1,2008-04-08T13:00:00Z,28.8332,-90.8320,10.0,8.87,81.0,,'11111222,11111222,99999999' 
WAVCIS,ioos:station:WAVCIS:CSI15:1,2008-04-08T14:00:00Z,28.8332,-90.8320,10.0,8.64,79.0,,'11111222,11111222,99999999' 
WAVCIS,ioos:station:WAVCIS:CSI15:1,2008-04-08T15:00:00Z,28.8332,-90.8320,10.0,7.97,82.0,,'11111222,11111222,99999999' 
WAVCIS,ioos:station:WAVCIS:CSI15:1,2008-04-08T16:00:00Z,28.8332,-90.8320,10.0,8.0,79.0,,'11111222,11111222,99999999' 
WAVCIS,ioos:station:WAVCIS:CSI15:1,2008-04-08T17:00:00Z,28.8332,-90.8320,10.0,7.25,68.0,,'11111222,11111222,99999999' 
WAVCIS,ioos:station:WAVCIS:CSI15:1,2008-04-08T18:00:00Z,28.8332,-90.8320,10.0,8.73,82.0,,'11111222,11111222,99999999' 
WAVCIS,ioos:station:WAVCIS:CSI15:1,2008-04-08T19:00:00Z,28.8332,-90.8320,10.0,7.29,79.0,,'11111222,11111222,99999999' 
WAVCIS,ioos:station:WAVCIS:CSI15:1,2008-04-08T20:00:00Z,28.8332,-90.8320,10.0,8.23,81.0,,'11111222,11111222,99999999' 
WAVCIS,ioos:station:WAVCIS:CSI15:1,2008-04-08T21:00:00Z,28.8332,-90.8320,10.0,8.89,83.0,,'11111222,11111222,99999999' 
WAVCIS,ioos:station:WAVCIS:CSI15:1,2008-04-08T22:00:00Z,28.8332,-90.8320,10.0,8.85,82.0,,'11111222,11111222,99999999' 
WAVCIS,ioos:station:WAVCIS:CSI15:1,2008-04-08T23:00:00Z,28.8332,-90.8320,10.0,7.34,83.0,,'11111222,11111222,99999999' 
WAVCIS,ioos:station:WAVCIS:CSI15:1,2008-04-09T00:00:00Z,28.8332,-90.8320,10.0,7.1,80.0,,'11111222,11111222,99999999' 
WAVCIS,ioos:station:WAVCIS:CSI15:1,2008-04-09T01:00:00Z,28.8332,-90.8320,10.0,7.51,81.0,,'11111222,11111222,99999999' 
WAVCIS,ioos:station:WAVCIS:CSI15:1,2008-04-09T02:00:00Z,28.8332,-90.8320,10.0,9.46,75.0,,'11111222,11111222,99999999' 
WAVCIS,ioos:station:WAVCIS:CSI15:1,2008-04-09T03:00:00Z,28.8332,-90.8320,10.0,9.95,78.0,,'11111222,11111222,99999999' 
WAVCIS,ioos:station:WAVCIS:CSI15:1,2008-04-09T04:00:00Z,28.8332,-90.8320,10.0,9.5,80.0,,'11111222,11111222,99999999' 
WAVCIS,ioos:station:WAVCIS:CSI15:1,2008-04-09T05:00:00Z,28.8332,-90.8320,10.0,9.81,79.0,,'11111222,11111222,99999999' 
WAVCIS,ioos:station:WAVCIS:CSI15:1,2008-04-09T06:00:00Z,28.8332,-90.8320,10.0,9.82,79.0,,'11111222,11111222,99999999' 
WAVCIS,ioos:station:WAVCIS:CSI15:1,2008-04-09T07:00:00Z,28.8332,-90.8320,10.0,10.27,82.0,,'11111222,11111222,99999999' 
WAVCIS,ioos:station:WAVCIS:CSI15:1,2008-04-09T08:00:00Z,28.8332,-90.8320,10.0,10.47,82.0,,'11111222,11111222,99999999' 
WAVCIS,ioos:station:WAVCIS:CSI15:1,2008-04-09T09:00:00Z,28.8332,-90.8320,10.0,9.72,83.0,,'11111222,11111222,99999999' 
WAVCIS,ioos:station:WAVCIS:CSI15:1,2008-04-09T10:00:00Z,28.8332,-90.8320,10.0,10.61,83.0,,'11111222,11111222,99999999' 
WAVCIS,ioos:station:WAVCIS:CSI15:1,2008-04-09T11:00:00Z,28.8332,-90.8320,10.0,9.78,83.0,,'11111222,11111222,99999999' 
WAVCIS,ioos:station:WAVCIS:CSI15:1,2008-04-09T12:00:00Z,28.8332,-90.8320,10.0,9.82,80.0,,'11111222,11111222,99999999' 
WAVCIS,ioos:station:WAVCIS:CSI15:1,2008-04-09T13:00:00Z,28.8332,-90.8320,10.0,9.81,83.0,,'11111222,11111222,99999999' 
WAVCIS,ioos:station:WAVCIS:CSI15:1,2008-04-09T15:00:00Z,28.8332,-90.8320,10.0,9.77,86.0,,'11111222,11111222,99999999' 
WAVCIS,ioos:station:WAVCIS:CSI15:1,2008-04-09T16:00:00Z,28.8332,-90.8320,10.0,9.19,87.0,,'11111222,11111222,99999999' 
WAVCIS,ioos:station:WAVCIS:CSI15:1,2008-04-09T17:00:00Z,28.8332,-90.8320,10.0,8.23,86.0,,'11111222,11111222,99999999' 
WAVCIS,ioos:station:WAVCIS:CSI15:1,2008-04-09T18:00:00Z,28.8332,-90.8320,10.0,8.08,88.0,,'11111222,11111222,99999999' 
WAVCIS,ioos:station:WAVCIS:CSI15:1,2008-04-09T19:00:00Z,28.8332,-90.8320,10.0,7.52,87.0,,'11111222,11111222,99999999' 
WAVCIS,ioos:station:WAVCIS:CSI15:1,2008-04-09T20:00:00Z,28.8332,-90.8320,10.0,8.05,84.0,,'11111222,11111222,99999999' 
WAVCIS,ioos:station:WAVCIS:CSI15:1,2008-04-09T21:00:00Z,28.8332,-90.8320,10.0,8.34,83.0,,'11111222,11111222,99999999' 
WAVCIS,ioos:station:WAVCIS:CSI15:1,2008-04-09T22:00:00Z,28.8332,-90.8320,10.0,8.63,85.0,,'11111222,11111222,99999999' 
WAVCIS,ioos:station:WAVCIS:CSI15:1,2008-04-09T23:00:00Z,28.8332,-90.8320,10.0,9.58,83.0,,'11111222,11111222,99999999' 
WAVCIS,ioos:station:WAVCIS:CSI15:1,2008-04-10T00:00:00Z,28.8332,-90.8320,10.0,9.3,86.0,,'11111222,11111222,99999999' 
WAVCIS,ioos:station:WAVCIS:CSI15:1,2008-04-10T01:00:00Z,28.8332,-90.8320,10.0,9.53,87.0,,'11111222,11111222,99999999' 
WAVCIS,ioos:station:WAVCIS:CSI15:1,2008-04-10T02:00:00Z,28.8332,-90.8320,10.0,9.19,91.0,,'11111222,11111222,99999999' 
WAVCIS,ioos:station:WAVCIS:CSI15:1,2008-04-10T03:00:00Z,28.8332,-90.8320,10.0,8.38,93.0,,'11111222,11111222,99999999' 
WAVCIS,ioos:station:WAVCIS:CSI15:1,2008-04-10T04:00:00Z,28.8332,-90.8320,10.0,7.29,97.0,,'11111222,11111222,99999999' 
WAVCIS,ioos:station:WAVCIS:CSI15:1,2008-04-10T05:00:00Z,28.8332,-90.8320,10.0,9.12,109.0,,'11111222,11111222,99999999' 
WAVCIS,ioos:station:WAVCIS:CSI15:1,2008-04-10T06:00:00Z,28.8332,-90.8320,10.0,9.72,115.0,,'11111222,11111222,99999999' 
WAVCIS,ioos:station:WAVCIS:CSI15:1,2008-04-10T07:00:00Z,28.8332,-90.8320,10.0,10.93,118.0,,'11111222,11111222,99999999' 
WAVCIS,ioos:station:WAVCIS:CSI15:1,2008-04-10T08:00:00Z,28.8332,-90.8320,10.0,10.45,118.0,,'11111222,11111222,99999999' 
WAVCIS,ioos:station:WAVCIS:CSI15:1,2008-04-10T09:00:00Z,28.8332,-90.8320,10.0,11.77,120.0,,'11111222,11111222,99999999' 
WAVCIS,ioos:station:WAVCIS:CSI15:1,2008-04-10T10:00:00Z,28.8332,-90.8320,10.0,11.08,125.0,,'11111222,11111222,99999999' 
WAVCIS,ioos:station:WAVCIS:CSI15:1,2008-04-10T11:00:00Z,28.8332,-90.8320,10.0,10.86,126.0,,'11111222,11111222,99999999' 
WAVCIS,ioos:station:WAVCIS:CSI15:1,2008-04-10T12:00:00Z,28.8332,-90.8320,10.0,11.4,125.0,,'11111222,11111222,99999999' 
WAVCIS,ioos:station:WAVCIS:CSI15:1,2008-04-10T13:00:00Z,28.8332,-90.8320,10.0,11.44,123.0,,'11111222,11111222,99999999' 
WAVCIS,ioos:station:WAVCIS:CSI15:1,2008-04-10T14:00:00Z,28.8332,-90.8320,10.0,11.13,128.0,,'11111222,11111222,99999999' 
WAVCIS,ioos:station:WAVCIS:CSI15:1,2008-04-10T15:00:00Z,28.8332,-90.8320,10.0,11.49,135.0,,'11111222,11111222,99999999' 
WAVCIS,ioos:station:WAVCIS:CSI15:1,2008-04-10T16:00:00Z,28.8332,-90.8320,10.0,9.81,137.0,,'11111222,11111222,99999999' 
WAVCIS,ioos:station:WAVCIS:CSI15:1,2008-04-10T17:00:00Z,28.8332,-90.8320,10.0,9.79,131.0,,'11111222,11111222,99999999' 
WAVCIS,ioos:station:WAVCIS:CSI15:1,2008-04-10T18:00:00Z,28.8332,-90.8320,10.0,10.65,128.0,,'11111222,11111222,99999999' 
WAVCIS,ioos:station:WAVCIS:CSI15:1,2008-04-10T19:00:00Z,28.8332,-90.8320,10.0,10.53,127.0,,'11111222,11111222,99999999' 
WAVCIS,ioos:station:WAVCIS:CSI15:1,2008-04-10T20:00:00Z,28.8332,-90.8320,10.0,9.0,131.0,,'11111222,11111222,99999999' 
WAVCIS,ioos:station:WAVCIS:CSI15:1,2008-04-10T21:00:00Z,28.8332,-90.8320,10.0,10.3,129.0,,'11111222,11111222,99999999' 
WAVCIS,ioos:station:WAVCIS:CSI15:1,2008-04-10T22:00:00Z,28.8332,-90.8320,10.0,8.79,136.0,,'11111222,11111222,99999999' 
WAVCIS,ioos:station:WAVCIS:CSI15:1,2008-04-10T23:00:00Z,28.8332,-90.8320,10.0,8.53,138.0,,'11111222,11111222,99999999' 
WAVCIS,ioos:station:WAVCIS:CSI15:1,2008-04-11T00:00:00Z,28.8332,-90.8320,10.0,8.74,137.0,,'11111222,11111222,99999999' 
WAVCIS,ioos:station:WAVCIS:CSI15:1,2008-04-11T01:00:00Z,28.8332,-90.8320,10.0,8.29,131.0,,'11111222,11111222,99999999' 
WAVCIS,ioos:station:WAVCIS:CSI15:1,2008-04-11T02:00:00Z,28.8332,-90.8320,10.0,9.01,132.0,,'11111222,11111222,99999999' 
WAVCIS,ioos:station:WAVCIS:CSI15:1,2008-04-11T03:00:00Z,28.8332,-90.8320,10.0,10.61,132.0,,'11111222,11111222,99999999' 
WAVCIS,ioos:station:WAVCIS:CSI15:1,2008-04-11T04:00:00Z,28.8332,-90.8320,10.0,8.04,137.0,,'11111222,11111222,99999999' 
WAVCIS,ioos:station:WAVCIS:CSI15:1,2008-04-11T05:00:00Z,28.8332,-90.8320,10.0,8.18,141.0,,'11111222,11111222,99999999' 
WAVCIS,ioos:station:WAVCIS:CSI15:1,2008-04-11T06:00:00Z,28.8332,-90.8320,10.0,5.96,142.0,,'11111222,11111222,99999999' 
WAVCIS,ioos:station:WAVCIS:CSI15:1,2008-04-11T07:00:00Z,28.8332,-90.8320,10.0,6.867,141.0,,'11111222,11111222,99999999' 
WAVCIS,ioos:station:WAVCIS:CSI15:1,2008-04-11T08:00:00Z,28.8332,-90.8320,10.0,7.93,137.0,,'11111222,11111222,99999999' 
WAVCIS,ioos:station:WAVCIS:CSI15:1,2008-04-11T09:00:00Z,28.8332,-90.8320,10.0,8.85,137.0,,'11111222,11111222,99999999' 
WAVCIS,ioos:station:WAVCIS:CSI15:1,2008-04-11T10:00:00Z,28.8332,-90.8320,10.0,8.35,138.0,,'11111222,11111222,99999999' 
WAVCIS,ioos:station:WAVCIS:CSI15:1,2008-04-11T11:00:00Z,28.8332,-90.8320,10.0,7.72,138.0,,'11111222,11111222,99999999' 
WAVCIS,ioos:station:WAVCIS:CSI15:1,2008-04-11T12:00:00Z,28.8332,-90.8320,10.0,8.29,137.0,,'11111222,11111222,99999999' 
WAVCIS,ioos:station:WAVCIS:CSI15:1,2008-04-11T13:00:00Z,28.8332,-90.8320,10.0,8.52,140.0,,'11111222,11111222,99999999' 
WAVCIS,ioos:station:WAVCIS:CSI15:1,2008-04-11T14:00:00Z,28.8332,-90.8320,10.0,8.8,141.0,,'11111222,11111222,99999999' 
WAVCIS,ioos:station:WAVCIS:CSI15:1,2008-04-11T16:00:00Z,28.8332,-90.8320,10.0,7.31,143.0,,'11111222,11111222,99999999' 
WAVCIS,ioos:station:WAVCIS:CSI15:1,2008-04-11T17:00:00Z,28.8332,-90.8320,10.0,7.19,144.0,,'11111222,11111222,99999999' 
WAVCIS,ioos:station:WAVCIS:CSI15:1,2008-04-11T18:00:00Z,28.8332,-90.8320,10.0,6.171,146.0,,'11111222,11111222,99999999' 
WAVCIS,ioos:station:WAVCIS:CSI15:1,2008-04-11T19:00:00Z,28.8332,-90.8320,10.0,3.86,165.0,,'11111222,11111222,99999999' 
WAVCIS,ioos:station:WAVCIS:CSI15:1,2008-04-11T20:00:00Z,28.8332,-90.8320,10.0,2.226,192.0,,'11111222,11111222,99999999' 
WAVCIS,ioos:station:WAVCIS:CSI15:1,2008-04-11T21:00:00Z,28.8332,-90.8320,10.0,2.505,177.0,,'11111222,11111222,99999999' 
WAVCIS,ioos:station:WAVCIS:CSI15:1,2008-04-11T22:00:00Z,28.8332,-90.8320,10.0,4.304,166.0,,'11111222,11111222,99999999' 
WAVCIS,ioos:station:WAVCIS:CSI15:1,2008-04-11T23:00:00Z,28.8332,-90.8320,10.0,5.314,160.0,,'11111222,11111222,99999999' 
WAVCIS,ioos:station:WAVCIS:CSI15:1,2008-04-12T00:00:00Z,28.8332,-90.8320,10.0,5.314,159.0,,'11111222,11111222,99999999' 
WAVCIS,ioos:station:WAVCIS:CSI15:1,2008-04-12T01:00:00Z,28.8332,-90.8320,10.0,5.386,157.0,,'11111222,11111222,99999999' 
WAVCIS,ioos:station:WAVCIS:CSI15:1,2008-04-12T02:00:00Z,28.8332,-90.8320,10.0,6.404,174.0,,'11111222,11111222,99999999' 
WAVCIS,ioos:station:WAVCIS:CSI15:1,2008-04-12T03:00:00Z,28.8332,-90.8320,10.0,7.38,165.0,,'11111222,11111222,99999999' 
WAVCIS,ioos:station:WAVCIS:CSI15:1,2008-04-12T04:00:00Z,28.8332,-90.8320,10.0,6.772,170.0,,'11111222,11111222,99999999' 
WAVCIS,ioos:station:WAVCIS:CSI15:1,2008-04-12T05:00:00Z,28.8332,-90.8320,10.0,6.036,176.0,,'11111222,11111222,99999999' 
WAVCIS,ioos:station:WAVCIS:CSI15:1,2008-04-12T06:00:00Z,28.8332,-90.8320,10.0,5.731,189.0,,'11111222,11111222,99999999' 
WAVCIS,ioos:station:WAVCIS:CSI15:1,2008-04-12T07:00:00Z,28.8332,-90.8320,10.0,4.379,197.0,,'11111222,11111222,99999999' 
WAVCIS,ioos:station:WAVCIS:CSI15:1,2008-04-12T08:00:00Z,28.8332,-90.8320,10.0,15.8,325.0,,'11111222,11111222,99999999' 
WAVCIS,ioos:station:WAVCIS:CSI15:1,2008-04-12T09:00:00Z,28.8332,-90.8320,10.0,16.19,322.0,,'11111222,11111222,99999999' 
WAVCIS,ioos:station:WAVCIS:CSI15:1,2008-04-12T10:00:00Z,28.8332,-90.8320,10.0,12.27,337.0,,'11111222,11111222,99999999' 
WAVCIS,ioos:station:WAVCIS:CSI15:1,2008-04-12T11:00:00Z,28.8332,-90.8320,10.0,11.89,351.0,,'11111222,11111222,99999999' 
WAVCIS,ioos:station:WAVCIS:CSI15:1,2008-04-12T12:00:00Z,28.8332,-90.8320,10.0,12.16,350.0,,'11111222,11111222,99999999' 
WAVCIS,ioos:station:WAVCIS:CSI15:1,2008-04-12T13:00:00Z,28.8332,-90.8320,10.0,8.72,6.0,,'11111222,11111222,99999999' 
WAVCIS,ioos:station:WAVCIS:CSI15:1,2008-04-12T14:00:00Z,28.8332,-90.8320,10.0,6.778,15.0,,'11111222,11111222,99999999' 
WAVCIS,ioos:station:WAVCIS:CSI15:1,2008-04-12T15:00:00Z,28.8332,-90.8320,10.0,5.672,355.0,,'11111222,11111222,99999999' 
WAVCIS,ioos:station:WAVCIS:CSI15:1,2008-04-12T16:00:00Z,28.8332,-90.8320,10.0,7.29,348.0,,'11111222,11111222,99999999' 
WAVCIS,ioos:station:WAVCIS:CSI15:1,2008-04-12T17:00:00Z,28.8332,-90.8320,10.0,7.31,354.0,,'11111222,11111222,99999999' 
WAVCIS,ioos:station:WAVCIS:CSI15:1,2008-04-12T18:00:00Z,28.8332,-90.8320,10.0,7.0,355.0,,'11111222,11111222,99999999' 
WAVCIS,ioos:station:WAVCIS:CSI15:1,2008-04-12T19:00:00Z,28.8332,-90.8320,10.0,7.02,352.0,,'11111222,11111222,99999999' 
WAVCIS,ioos:station:WAVCIS:CSI15:1,2008-04-12T20:00:00Z,28.8332,-90.8320,10.0,5.923,335.0,,'11111222,11111222,99999999' 
WAVCIS,ioos:station:WAVCIS:CSI15:1,2008-04-12T21:00:00Z,28.8332,-90.8320,10.0,6.498,327.0,,'11111222,11111222,99999999' 
WAVCIS,ioos:station:WAVCIS:CSI15:1,2008-04-12T22:00:00Z,28.8332,-90.8320,10.0,5.547,313.0,,'11111222,11111222,99999999' 
WAVCIS,ioos:station:WAVCIS:CSI15:1,2008-04-12T23:00:00Z,28.8332,-90.8320,10.0,6.543,305.0,,'11111222,11111222,99999999' 